Hourly Weather Roundup
Issued by NWS Central Illinois

Home | Current Version | Previous Version | Text Only | Print | Product List | Glossary On
Versions: 1 2 3 4 5 6 7 8 9 10 11 12 13 14 15 16 17 18 19 20 21 22 23 24 25 26 27 28 29 30 31 32 33 34 35 36 37 38 39 40 41 42 43 44 45 46 47 48 49 50
947
NZUS43 KILX 251010
HWRILX

Area Weather Roundup
National Weather Service Lincoln IL
500 AM CDT THU MAY 25 2017

NOTE:  "FAIR" indicates few or no clouds below 12,000 feet, with
       no sigificant weather and/or obstructions to visibility.


CITY           SKY/WX    TMP DP  RH WIND       PRES   REMARKS
Bloomington    CLOUDY    53  51  93 N16G26    29.59R
Champaign      CLOUDY    55  52  89 NW20      29.55R
Danville       CLOUDY    54  53  95 NW14      29.49R
Decatur        CLOUDY    56  52  86 NW15      29.58R
Effingham      CLOUDY    58  56  95 W13       29.58S
Flora          CLOUDY    59  55  89 W10G16    29.58R
Galesburg      CLEAR     49  49  99 NW6       29.64R
Jacksonville   CLEAR     51  50  97 W7        29.63S
Lacon          CLOUDY    54  51  92 NW7       29.61R
Lawrenceville  CLOUDY    59  55  87 NW17      29.54R
Litchfield     MOCLDY    54  52  94 NW9       29.62S
$$


CITY           SKY/WX    TMP DP  RH WIND       PRES   REMARKS
Lincoln        MOCLDY    55  54  96 NW3       29.60S
Macomb         CLEAR     49  49  99 NW7       29.67R
Mattoon        CLOUDY    56  54  93 NW14      29.54R
Mt Carmel AP   CLOUDY    59  54  85 NW10      29.54R
Olney-Noble AP CLOUDY    58  58 100 W14       29.56S
Paris AP       CLOUDY    55  54  96 NW15      29.52R
Peoria         CLOUDY    54  51  90 N6        29.62R
Pontiac        CLOUDY    54  54  98 N15G22    29.58R
Rantoul        CLOUDY    56  55  94 NW15G22   29.54R
Robinson       CLOUDY    57  55  91 NW13      29.53R
Springfield    CLOUDY    56  53  90 N8        29.62R
Taylorville    CLOUDY    55  53  92 NW12      29.60S
$$

...REGIONAL REPORTS...


CITY           SKY/WX    TMP DP  RH WIND       PRES   REMARKS
Chicago O`Hare MOCLDY    54  50  86 N13       29.55S
Kankakee       CLOUDY    55  52  89 NW12      29.54R
Moline         PTCLDY    53  49  86 N6        29.64S
Mount Sterling CLEAR     50  49  96 NW6       29.65R
Mount Vernon     N/A     56  54  93 W9        29.61R
Pittsfield     CLEAR     52  51  95 W5        29.66S
Quincy         CLEAR     50  49  96 NW7       29.66R
Rockford       CLOUDY    55  51  86 N9        29.63R
$$


CITY           SKY/WX    TMP DP  RH WIND       PRES   REMARKS
Burlington     CLEAR     50  48  93 NW3       29.66R
Cedar Rapids   CLEAR     46  46 100 N5        29.66S
Des Moines     PTCLDY    47  44  90 CALM      29.69R
Kirksville     FOG       43  42  97 NW3       29.70R VSB 1/4
Ottumwa        CLEAR     44  44 100 NW6       29.69R
St Louis       PTCLDY    56  51  84 W9        29.65R
$$


CITY           SKY/WX    TMP DP  RH WIND       PRES   REMARKS
Terre Haute    CLOUDY    56  53  90 NW12      29.50R
Evansville     CLOUDY    59  55  87 W9        29.55R
Indianapolis   LGT RAIN  56  54  93 NW17      29.41R
Lafayette      CLOUDY    54  54 100 NW12      29.46R FOG
Madison        CLOUDY    52  50  93 N10       29.64S
Milwaukee      CLOUDY    53  50  89 N12       29.59R
$$






USA.gov is the U.S. government's official web portal to all federal, state and local government web resources and services.